Change the Weather History Date:

Friday, April 5, 2013

  Actual Average Record
Temperature  
Mean Temperature 32 °F -  
Max Temperature 37 °F 41 °F 64 °F (2005)
Min Temperature 26 °F 31 °F 19 °F (2007)
Degree Days  
Heating Degree Days 33    
Moisture  
Dew Point 24 °F    
Average Humidity 69    
Maximum Humidity 86    
Minimum Humidity 56    
Precipitation  
Precipitation 0.00 in - - ()
Sea Level Pressure  
Sea Level Pressure 30.12 in    
Wind  
Wind Speed 7 mph (North)    
Max Wind Speed 17 mph    
Max Gust Speed 24 mph    
Averages and records for this station are not official NWS values.
T = Trace of Precipitation, MM = Missing Value Source: NWS Daily Summary

Daily Weather History Graph

Daily Weather History Graph

Search for Another Location

Airport or City:

Trip Planner

Search our weather history database for the weather conditions in past years. The results will help you decide how hot, cold, wet, or windy it might be!

Date:

Astronomy

Apr. 05, 2013 Rise Set
Actual Time 7:04 AM EDT 8:03 PM EDT
Civil Twilight 6:35 AM EDT 8:32 PM EDT
Nautical Twilight 6:00 AM EDT 9:08 PM EDT
Astronomical Twilight 5:23 AM EDT 9:44 PM EDT
Moon 4:21 AM EDT (4/5) 3:17 PM EDT (4/5)
Length of Visible Light 13h 57m
Length of Day
12h 58m
Waning Crescent, 24% of the Moon is Illuminated
Apr 5
Waning Crescent
Apr 10
New
Apr 18
First Quarter
Apr 25
Full
May 2
Last Quarter

Hourly Weather History & Observations

Time (EDT) Temp. Windchill Dew Point Humidity Pressure Visibility Wind Dir Wind Speed Gust Speed Precip Events Conditions
12:51 AM 34.0 °F - 30.0 °F 85% 29.97 in - Calm Calm - N/A   Unknown
1:51 AM 37.0 °F 33.3 °F 32.0 °F 82% 29.97 in - NNW 4.6 mph - N/A   Unknown
2:51 AM 36.0 °F 32.1 °F 32.0 °F 86% 29.97 in - NNW 4.6 mph - N/A   Unknown
3:51 AM 35.1 °F 30.1 °F 30.9 °F 85% 29.97 in - NW 5.8 mph - N/A   Unknown
4:51 AM 35.1 °F 29.3 °F 27.0 °F 72% 30.00 in - NNW 6.9 mph - N/A   Unknown
5:51 AM 34.0 °F 26.6 °F 24.1 °F 67% 30.01 in - NNW 9.2 mph 21.9 mph N/A   Unknown
6:51 AM 33.1 °F 25.5 °F 24.1 °F 70% 30.05 in - NW 9.2 mph - N/A   Unknown
7:51 AM 34.0 °F 27.2 °F 25.0 °F 70% 30.07 in - NNW 8.1 mph - N/A   Unknown
8:51 AM 35.1 °F 27.9 °F 26.1 °F 70% 30.11 in - NW 9.2 mph - N/A   Unknown
9:51 AM 35.1 °F 27.9 °F 28.0 °F 76% 30.12 in - NNW 9.2 mph - N/A   Unknown
10:51 AM 33.1 °F 22.6 °F 27.0 °F 78% 30.15 in - North 16.1 mph 21.9 mph N/A   Unknown
11:51 AM 34.0 °F 28.0 °F 23.0 °F 64% 30.17 in - North 6.9 mph - N/A   Unknown
12:51 PM 36.0 °F 29.0 °F 21.9 °F 57% 30.19 in - North 9.2 mph - N/A   Unknown
1:51 PM 34.0 °F 24.6 °F 21.0 °F 59% 30.19 in - North 13.8 mph 24.2 mph N/A   Unknown
2:51 PM 34.0 °F 23.4 °F 19.9 °F 56% 30.18 in - North 17.3 mph - N/A   Unknown
3:51 PM 33.1 °F 23.0 °F 19.0 °F 56% 30.18 in - North 15.0 mph - N/A   Unknown
4:51 PM 33.1 °F 23.4 °F 21.0 °F 61% 30.18 in - NNE 13.8 mph - N/A   Unknown
5:51 PM 33.1 °F 26.1 °F 19.0 °F 56% 30.18 in - NE 8.1 mph - N/A   Unknown
6:51 PM 32.0 °F 24.2 °F 19.0 °F 59% 30.20 in - NNE 9.2 mph - N/A   Unknown
7:51 PM 32.0 °F 24.8 °F 19.9 °F 61% 30.21 in - NNE 8.1 mph - N/A   Unknown
8:51 PM 32.0 °F 27.5 °F 19.9 °F 61% 30.22 in - NNE 4.6 mph - N/A   Unknown
9:51 PM 28.0 °F - 19.9 °F 72% 30.22 in - Calm Calm - N/A   Unknown
10:51 PM 27.0 °F 23.0 °F 21.0 °F 78% 30.25 in - SW 3.5 mph - N/A   Unknown
11:51 PM 26.1 °F - 19.9 °F 78% 30.23 in - Calm Calm - N/A   Unknown